FW5335 Weather Reports


Display with metric or nautical units.
time (UTC)temp
F
wind
direction
speed
MPH
gust
MPH
rain 1hr
in
rain 24hr
in
rain mn
in
humidity
%
barometer
mb
20260508182519 62 180 4.0 8.0 0.00 0.00 0.00 63 1016.6
20260508181519 63 203 4.0 8.0 0.00 0.00 0.00 61 1016.8
20260508180518 63 203 4.0 7.0 0.00 0.00 0.00 62 1016.7
20260508175519 63 203 4.0 9.0 0.00 0.00 0.00 59 1016.5
20260508174518 64 180 3.0 5.0 0.00 0.00 0.00 57 1016.4
20260508173527 64 180 4.0 7.0 0.00 0.00 0.00 52 1016.3
20260508172518 65 203 4.0 10.0 0.00 0.00 0.00 54 1016.2
20260508171518 65 203 5.0 9.0 0.00 0.00 0.00 55 1016.2
20260508170518 65 180 6.0 11.0 0.00 0.00 0.00 55 1016.1
20260508165519 65 158 6.0 10.0 0.00 0.00 0.00 50 1016.0
20260508164518 66 135 5.0 10.0 0.00 0.00 0.00 49 1016.0
20260508163518 66 203 5.0 8.0 0.00 0.00 0.00 52 1015.7
20260508162518 66 180 4.0 8.0 0.00 0.00 0.00 51 1015.6
20260508161518 66 203 4.0 7.0 0.00 0.00 0.00 48 1015.7
20260508160519 67 180 5.0 9.0 0.00 0.00 0.00 46 1015.8
20260508155558 66 203 5.0 10.0 0.00 0.00 0.00 48 1015.9
20260508154517 67 203 6.0 11.0 0.00 0.00 0.00 50 1015.9
20260508153518 67 180 5.0 8.0 0.00 0.00 0.00 49 1016.1
20260508152518 67 135 6.0 12.0 0.00 0.00 0.00 48 1016.3
20260508151518 66 158 5.0 10.0 0.00 0.00 0.00 50 1016.2
20260508150528 66 180 6.0 12.0 0.00 0.00 0.00 50 1016.3
20260508145519 66 203 4.0 10.0 0.00 0.00 0.00 48 1016.2
20260508144518 67 135 5.0 10.0 0.00 0.00 0.00 49 1016.3
20260508143518 67 203 5.0 10.0 0.00 0.00 0.00 49 1016.1
20260508142518 68 203 6.0 12.0 0.00 0.00 0.00 51 1016.4
20260508141518 67 180 6.0 12.0 0.00 0.00 0.00 52 1016.3
20260508140518 68 203 7.0 12.0 0.00 0.00 0.00 49 1016.3
20260508135518 68 180 5.0 9.0 0.00 0.00 0.00 50 1016.3
20260508134518 68 203 6.0 10.0 0.00 0.00 0.00 48 1016.2
20260508133523 67 203 6.0 12.0 0.00 0.00 0.00 49 1016.3
20260508132520 67 180 6.0 10.0 0.00 0.00 0.00 49 1016.3
20260508131543 67 203 6.0 11.0 0.00 0.00 0.00 51 1016.3
20260508130520 67 180 4.0 11.0 0.00 0.00 0.00 50 1016.4
20260508125521 67 180 5.0 11.0 0.00 0.00 0.00 51 1016.3
20260508124543 68 203 5.0 11.0 0.00 0.00 0.00 50 1016.2
20260508123520 68 203 6.0 12.0 0.00 0.00 0.00 49 1016.4
20260508122600 66 203 6.0 11.0 0.00 0.00 0.00 53 1016.3
20260508121520 65 180 8.0 15.0 0.00 0.00 0.00 53 1016.4
20260508120521 65 203 7.0 12.0 0.00 0.00 0.00 53 1016.5
20260508115520 65 203 7.0 12.0 0.00 0.00 0.00 54 1016.4
20260508114520 65 203 6.0 11.0 0.00 0.00 0.00 53 1016.4
20260508113520 65 203 5.0 11.0 0.00 0.00 0.00 54 1016.3
20260508112545 66 180 4.0 11.0 0.00 0.00 0.00 50 1016.5
20260508111521 66 113 6.0 11.0 0.00 0.00 0.00 53 1016.3
20260508110525 66 135 6.0 13.0 0.00 0.00 0.00 56 1016.4
20260508105518 65 135 5.0 9.0 0.00 0.00 0.00 55 1016.4
20260508104640 64 135 7.0 14.0 0.00 0.00 0.00 58 1016.0
20260508103520 63 158 7.0 14.0 0.00 0.00 0.00 61 1016.1
20260508102520 62 68 2.0 5.0 0.00 0.00 0.00 69 1015.9
20260508101520 62 68 4.0 12.0 0.00 0.00 0.00 67 1016.4
20260508100519 63 135 3.0 8.0 0.00 0.00 0.00 68 1016.2
20260508095526 62 23 2.0 5.0 0.00 0.00 0.00 70 1016.3
20260508094520 62 68 3.0 7.0 0.00 0.00 0.00 71 1016.4
20260508093540 62 68 4.0 9.0 0.00 0.00 0.00 71 1016.2
20260508092525 62 90 5.0 9.0 0.00 0.00 0.00 72 1016.2
20260508091519 60 45 3.0 8.0 0.00 0.00 0.00 75 1016.1
20260508090519 59 113 3.0 8.0 0.00 0.00 0.00 75 1016.2
20260508085520 60 113 6.0 8.0 0.00 0.00 0.00 74 1016.1
20260508084519 59 113 3.0 6.0 0.00 0.00 0.00 77 1016.1
20260508083523 58 113 3.0 6.0 0.00 0.00 0.00 79 1015.9
20260508082520 57 90 3.0 8.0 0.00 0.00 0.00 78 1016.2
20260508081519 56 113 3.0 6.0 0.00 0.00 0.00 81 1016.1
20260508080539 55 113 3.0 7.0 0.00 0.00 0.00 82 1016.2
20260508075539 54 68 3.0 6.0 0.00 0.00 0.00 82 1016.1
20260508074519 54 68 3.0 6.0 0.00 0.00 0.00 83 1016.0
20260508073519 54 68 3.0 5.0 0.00 0.00 0.00 84 1015.8
20260508072559 53 68 3.0 5.0 0.00 0.00 0.00 84 1015.8
20260508071540 53 90 3.0 8.0 0.00 0.00 0.00 84 1015.7
20260508070539 52 68 2.0 4.0 0.00 0.00 0.00 84 1015.7
20260508065520 52 90 4.0 8.0 0.00 0.00 0.00 85 1015.5
20260508064519 52 68 4.0 7.0 0.00 0.00 0.00 85 1015.6
20260508063538 51 68 3.0 6.0 0.00 0.00 0.00 87 1015.5
20260508062519 50 68 3.0 6.0 0.00 0.00 0.00 88 1015.6
20260508061519 50 90 2.0 5.0 0.00 0.00 0.00 87 1015.4
20260508060525 50 68 3.0 4.0 0.00 0.00 0.00 87 1015.4
20260508055519 50 90 1.0 2.0 0.00 0.00 0.00 87 1015.4
20260508054518 49 90 1.0 2.0 0.00 0.00 0.00 87 1015.3
20260508053519 49 90 2.0 4.0 0.00 0.00 0.00 87 1015.1
20260508052519 50 90 3.0 7.0 0.00 0.00 0.00 86 1015.3
20260508051519 50 90 3.0 7.0 0.00 0.00 0.00 86 1015.3
20260508050518 50 68 3.0 7.0 0.00 0.00 0.00 86 1015.3
20260508045519 50 90 2.0 6.0 0.00 0.00 0.00 86 1015.4
20260508044524 50 90 4.0 7.0 0.00 0.00 0.00 85 1014.9
20260508043524 51 90 3.0 5.0 0.00 0.00 0.00 85 1014.9
20260508042524 51 90 2.0 4.0 0.00 0.00 0.00 85 1015.0
20260508041546 51 68 3.0 7.0 0.00 0.00 0.00 84 1014.9
20260508040519 51 68 2.0 4.0 0.00 0.00 0.00 84 1015.0
20260508035523 51 68 3.0 7.0 0.00 0.00 0.00 84 1014.9
20260508034519 51 68 2.0 4.0 0.00 0.00 0.00 83 1015.1
20260508033517 51 90 2.0 5.0 0.00 0.00 0.00 83 1015.1
20260508032518 51 90 3.0 6.0 0.00 0.00 0.00 83 1015.2
20260508031538 51 90 2.0 4.0 0.00 0.00 0.00 82 1015.3
20260508030518 51 90 2.0 4.0 0.00 0.00 0.00 82 1015.4
20260508025518 51 68 2.0 3.0 0.00 0.00 0.00 82 1015.3
20260508024519 51 90 1.0 4.0 0.00 0.00 0.00 82 1015.2
20260508023519 51 90 1.0 3.0 0.00 0.00 0.00 81 1015.3
20260508022519 51 90 1.0 3.0 0.00 0.00 0.00 80 1015.4
20260508021519 51 90 1.0 2.0 0.00 0.00 0.00 80 1015.4
20260508020539 51 90 1.0 2.0 0.00 0.00 0.00 80 1015.3
20260508015542 51 90 2.0 4.0 0.00 0.00 0.00 79 1015.5
20260508014519 51 90 1.0 3.0 0.00 0.00 0.00 78 1015.5
20260508013518 51 0.0 1.0 0.00 0.00 0.00 78 1015.5
20260508012519 51 90 2.0 4.0 0.00 0.00 0.00 77 1015.4
20260508011520 51 68 1.0 2.0 0.00 0.00 0.00 76 1015.6
20260508010518 51 68 2.0 4.0 0.00 0.00 0.00 75 1015.3
20260508005519 51 68 2.0 3.0 0.00 0.00 0.00 74 1015.7
20260508004543 51 68 1.0 2.0 0.00 0.00 0.00 74 1015.7
20260508003544 51 0.0 2.0 0.00 0.00 0.00 73 1015.6
20260508002517 52 68 2.0 3.0 0.00 0.00 0.00 73 1015.7
20260508001518 52 68 2.0 3.0 0.00 0.00 0.00 73 1015.8
20260508000518 52 68 1.0 3.0 0.00 0.00 0.00 71 1015.9
20260507235519 52 90 2.0 3.0 0.00 0.00 0.00 71 1015.9
20260507234542 52 68 2.0 3.0 0.00 0.00 0.00 70 1015.9
20260507233559 52 68 1.0 3.0 0.00 0.00 0.00 70 1016.0
20260507232524 52 68 2.0 4.0 0.00 0.00 0.00 70 1016.1
20260507231519 52 68 2.0 4.0 0.00 0.00 0.00 70 1016.0
20260507230542 52 135 1.0 3.0 0.00 0.00 0.00 69 1016.0
20260507225518 52 135 1.0 3.0 0.00 0.00 0.00 69 1015.9
20260507224519 52 135 1.0 3.0 0.00 0.00 0.00 67 1015.8
20260507223519 53 0.0 2.0 0.00 0.00 0.00 66 1015.8
20260507222519 53 135 1.0 2.0 0.00 0.00 0.00 66 1015.9
20260507221519 52 135 1.0 3.0 0.00 0.00 0.00 66 1015.9
20260507220538 52 135 2.0 4.0 0.00 0.00 0.00 67 1016.1
20260507215525 53 135 1.0 4.0 0.00 0.00 0.00 70 1016.1
20260507214520 53 135 1.0 3.0 0.00 0.00 0.00 72 1016.2
20260507213543 52 0.0 2.0 0.00 0.00 0.00 70 1016.2
20260507212519 53 135 1.0 3.0 0.00 0.00 0.00 69 1016.1
20260507211523 53 0.0 0.0 0.00 0.00 0.00 69 1016.1
20260507210518 53 0.0 0.0 0.00 0.00 0.00 70 1016.1
20260507205519 53 135 1.0 2.0 0.00 0.00 0.00 70 1016.0
20260507204518 53 0.0 2.0 0.00 0.00 0.00 70 1015.9
20260507203523 54 135 1.0 2.0 0.00 0.00 0.00 69 1015.8
20260507202519 54 0.0 1.0 0.00 0.00 0.00 67 1015.7
20260507201518 54 0.0 1.0 0.00 0.00 0.00 64 1015.6
20260507200524 55 135 1.0 2.0 0.00 0.00 0.00 63 1015.7
20260507195517 55 135 1.0 2.0 0.00 0.00 0.00 64 1015.6
20260507194519 55 135 2.0 3.0 0.00 0.00 0.00 61 1015.4
20260507193518 55 135 1.0 3.0 0.00 0.00 0.00 62 1015.4
20260507192518 55 135 1.0 2.0 0.00 0.00 0.00 62 1015.3
20260507191518 56 135 1.0 2.0 0.00 0.00 0.00 64 1015.4
20260507190521 56 135 1.0 3.0 0.00 0.00 0.00 63 1015.4
20260507185519 56 158 1.0 2.0 0.00 0.00 0.00 63 1015.3
20260507184519 56 203 1.0 6.0 0.00 0.00 0.00 63 1015.2
20260507183519 56 203 1.0 4.0 0.00 0.00 0.00 62 1015.1